Change the Weather History Date:

Friday, January 17, 2014

  Actual Average (KDTO) Record (KDTO)
Temperature  
Mean Temperature 44 °F -  
Max Temperature 53 °F 54 °F 75 °F (2000)
Min Temperature 35 °F 32 °F 19 °F (1997)
Degree Days  
Heating Degree Days 21    
Moisture  
Dew Point 3 °F    
Average Humidity 21    
Maximum Humidity 48    
Minimum Humidity 5    
Precipitation  
Precipitation 0.00 in - - ()
Sea Level Pressure  
Sea Level Pressure 30.28 in    
Wind  
Wind Speed 12 mph (NW)    
Max Wind Speed 23 mph    
Max Gust Speed 28 mph    
Visibility 10 miles    
Events      
Averages and records for this station are not official NWS values.
T = Trace of Precipitation, MM = Missing Value Source: NWS Daily Summary

Daily Weather History Graph

Daily Weather History Graph

Search for Another Location

Airport or City:

Trip Planner

Search our weather history database for the weather conditions in past years. The results will help you decide how hot, cold, wet, or windy it might be!

Date:

Astronomy

Jan. 17, 2014 Rise Set
Actual Time 7:32 AM CST 5:45 PM CST
Civil Twilight 7:05 AM CST 6:12 PM CST
Nautical Twilight 6:35 AM CST 6:42 PM CST
Astronomical Twilight 6:05 AM CST 7:12 PM CST
Moon 7:25 PM CST (1/17) 8:07 AM CST (1/17)
Length of Visible Light 11h 06m
Length of Day
10h 12m
Full, 98% of the Moon is Illuminated
Jan 17
Full
Jan 23
Last Quarter
Jan 30
New
Feb 6
First Quarter
Feb 14
Full

Hourly Weather History & Observations

Time (CST) Temp. Windchill Dew Point Humidity Pressure Visibility Wind Dir Wind Speed Gust Speed Precip Events Conditions
12:15 AM 50.7 °F - -1.8 °F 11% 30.22 in 10.0 mi WNW 11.5 mph - N/A   Clear
12:35 AM 50.9 °F - -6.5 °F 9% 30.23 in 7.0 mi WNW 13.8 mph - N/A   Scattered Clouds
12:55 AM 51.1 °F - -11.6 °F 7% 30.22 in 7.0 mi NW 15.0 mph - N/A   Mostly Cloudy
1:15 AM 53.6 °F - -18.4 °F 5% 30.22 in 7.0 mi NW 17.3 mph 20.7 mph N/A   Mostly Cloudy
1:35 AM 52.7 °F - -16.2 °F 5% 30.22 in 7.0 mi NW 13.8 mph - N/A   Scattered Clouds
1:55 AM 50.9 °F - -16.4 °F 6% 30.22 in 7.0 mi NW 11.5 mph - N/A   Scattered Clouds
2:15 AM 50.9 °F - -16.4 °F 6% 30.24 in 7.0 mi NW 17.3 mph 24.2 mph N/A   Scattered Clouds
2:35 AM 50.9 °F - -11.9 °F 7% 30.25 in 10.0 mi NW 13.8 mph 21.9 mph N/A   Mostly Cloudy
2:55 AM 49.6 °F - -5.4 °F 10% 30.25 in 10.0 mi NNW 15.0 mph 21.9 mph N/A   Mostly Cloudy
3:15 AM 48.4 °F - -0.2 °F 13% 30.27 in 10.0 mi North 19.6 mph 27.6 mph N/A   Scattered Clouds
3:35 AM 48.4 °F - 7.2 °F 19% 30.27 in 10.0 mi North 15.0 mph 23.0 mph N/A   Mostly Cloudy
3:55 AM 45.9 °F 37.6 °F 5.9 °F 19% 30.28 in 10.0 mi NNW 23.0 mph 27.6 mph N/A   Overcast
4:15 AM 45.0 °F 38.9 °F 7.2 °F 21% 30.29 in 10.0 mi NNW 12.7 mph 21.9 mph N/A   Mostly Cloudy
4:35 AM 43.2 °F 36.2 °F 7.0 °F 23% 30.30 in 10.0 mi NNW 13.8 mph 19.6 mph N/A   Mostly Cloudy
4:55 AM 42.1 °F 36.1 °F 7.0 °F 24% 30.31 in 10.0 mi NNW 10.4 mph - N/A   Mostly Cloudy
5:15 AM 41.4 °F 33.6 °F 6.8 °F 24% 30.31 in 10.0 mi NNW 15.0 mph 24.2 mph N/A   Mostly Cloudy
5:35 AM 41.0 °F 32.8 °F 6.8 °F 24% 30.31 in 10.0 mi NNW 16.1 mph 21.9 mph N/A   Mostly Cloudy
5:55 AM 41.0 °F 33.1 °F 7.7 °F 25% 30.31 in 10.0 mi NNW 15.0 mph 19.6 mph N/A   Scattered Clouds
6:15 AM 41.0 °F 31.6 °F 5.4 °F 23% 30.31 in 10.0 mi NNW 20.7 mph 25.3 mph N/A   Scattered Clouds
6:35 AM 41.0 °F 32.5 °F 6.8 °F 24% 30.32 in 10.0 mi NNW 17.3 mph - N/A   Scattered Clouds
6:55 AM 39.6 °F 33.5 °F 8.4 °F 28% 30.33 in 10.0 mi NNW 9.2 mph - N/A   Scattered Clouds
7:15 AM 39.4 °F 31.8 °F 8.1 °F 27% 30.34 in 10.0 mi NNW 12.7 mph 18.4 mph N/A   Mostly Cloudy
7:35 AM 38.5 °F 31.6 °F 7.9 °F 28% 30.35 in 10.0 mi NNW 10.4 mph - N/A   Overcast
7:55 AM 38.3 °F 31.9 °F 8.8 °F 30% 30.35 in 10.0 mi NNW 9.2 mph - N/A   Scattered Clouds
8:15 AM 38.3 °F 33.2 °F 10.9 °F 32% 30.35 in 10.0 mi NW 6.9 mph - N/A   Scattered Clouds
8:35 AM 38.3 °F 31.9 °F 9.5 °F 31% 30.36 in 10.0 mi NW 9.2 mph - N/A   Scattered Clouds
8:55 AM 40.8 °F 34.5 °F 8.4 °F 26% 30.37 in 10.0 mi NW 10.4 mph - N/A   Clear
9:15 AM 41.0 °F 34.3 °F 5.7 °F 23% 30.37 in 10.0 mi NW 11.5 mph - N/A   Clear
9:35 AM 41.7 °F 34.8 °F 5.4 °F 22% 30.38 in 10.0 mi NNW 12.7 mph - N/A   Clear
9:55 AM 42.1 °F 35.2 °F 4.6 °F 21% 30.39 in 10.0 mi NNW 12.7 mph 17.3 mph N/A   Clear
10:15 AM 43.3 °F 36.1 °F 2.8 °F 19% 30.39 in 10.0 mi WNW 15.0 mph - N/A   Clear
10:35 AM 45.9 °F 40.4 °F 2.1 °F 16% 30.39 in 10.0 mi NNW 11.5 mph 18.4 mph N/A   Clear
10:55 AM 45.9 °F 39.4 °F 0.3 °F 15% 30.39 in 10.0 mi NNW 15.0 mph - N/A   Clear
11:15 AM 48.4 °F - 1.2 °F 14% 30.38 in 10.0 mi NW 12.7 mph - N/A   Clear
11:35 AM 48.4 °F - 1.0 °F 14% 30.37 in 10.0 mi WNW 15.0 mph 19.6 mph N/A   Clear
11:55 AM 48.4 °F - -1.8 °F 13% 30.35 in 10.0 mi NW 16.1 mph - N/A   Clear
12:15 PM 48.4 °F - -2.0 °F 12% 30.34 in 10.0 mi WNW 10.4 mph 17.3 mph N/A   Clear
12:35 PM 48.4 °F - -4.5 °F 11% 30.33 in 10.0 mi NNW 12.7 mph 18.4 mph N/A   Clear
12:55 PM 50.2 °F - -4.7 °F 10% 30.31 in 10.0 mi NW 16.1 mph - N/A   Clear
1:15 PM 50.9 °F - -6.0 °F 9% 30.30 in 10.0 mi NW 12.7 mph 17.3 mph N/A   Clear
1:35 PM 50.9 °F - -6.5 °F 9% 30.30 in 10.0 mi WNW 16.1 mph 19.6 mph N/A   Clear
1:55 PM 52.0 °F - -6.5 °F 9% 30.29 in 10.0 mi NNW 12.7 mph 16.1 mph N/A   Clear
2:15 PM 51.8 °F - -7.6 °F 8% 30.28 in 10.0 mi NW 10.4 mph - N/A   Clear
2:35 PM 53.6 °F - -6.9 °F 8% 30.27 in 10.0 mi NW 10.4 mph - N/A   Clear
2:55 PM 53.6 °F - -3.3 °F 10% 30.28 in 10.0 mi WNW 11.5 mph 16.1 mph N/A   Clear
3:15 PM 53.6 °F - -4.9 °F 9% 30.27 in 10.0 mi WNW 10.4 mph - N/A   Clear
3:35 PM 53.6 °F - -4.2 °F 9% 30.27 in 10.0 mi WNW 10.4 mph - N/A   Clear
3:55 PM 53.6 °F - -3.8 °F 9% 30.27 in 10.0 mi West 6.9 mph - N/A   Clear
4:15 PM 53.6 °F - -3.3 °F 10% 30.27 in 10.0 mi WNW 8.1 mph - N/A   Clear
4:35 PM 53.6 °F - -1.1 °F 11% 30.27 in 10.0 mi West 8.1 mph - N/A   Clear
4:55 PM 51.1 °F - -2.6 °F 11% 30.27 in 10.0 mi West 4.6 mph - N/A   Clear
5:15 PM 50.9 °F - 0.3 °F 13% 30.27 in 10.0 mi West 4.6 mph - N/A   Clear
5:35 PM 48.4 °F - 2.8 °F 15% 30.27 in 10.0 mi West 3.5 mph - N/A   Clear
5:55 PM 48.4 °F - 3.0 °F 16% 30.27 in 10.0 mi WNW 3.5 mph - N/A   Clear
6:15 PM 44.2 °F 42.7 °F 7.0 °F 22% 30.26 in 10.0 mi West 3.5 mph - N/A   Clear
6:35 PM 42.4 °F - 7.0 °F 23% 30.27 in 10.0 mi Calm Calm - N/A   Clear
6:55 PM 45.7 °F - 6.4 °F 20% 30.27 in 10.0 mi Calm Calm - N/A   Clear
7:15 PM 38.8 °F - 10.9 °F 32% 30.26 in 10.0 mi Calm Calm - N/A   Clear
7:35 PM 39.6 °F - 11.7 °F 32% 30.26 in 10.0 mi Calm Calm - N/A   Clear
7:55 PM 39.6 °F - 9.7 °F 29% 30.26 in 10.0 mi Calm Calm - N/A   Clear
8:15 PM 37.2 °F - 12.4 °F 36% 30.25 in 10.0 mi Calm Calm - N/A   Clear
8:35 PM 37.9 °F - 13.8 °F 37% 30.24 in 10.0 mi Calm Calm - N/A   Clear
8:55 PM 36.7 °F - 13.3 °F 38% 30.24 in 10.0 mi Calm Calm - N/A   Clear
9:15 PM 37.2 °F - 13.6 °F 38% 30.23 in 10.0 mi Calm Calm - N/A   Clear
9:35 PM 35.8 °F - 16.9 °F 46% 30.23 in 10.0 mi Calm Calm - N/A   Clear
9:55 PM 35.8 °F - 15.6 °F 44% 30.22 in 10.0 mi Calm Calm - N/A   Clear
10:15 PM 36.5 °F 32.7 °F 13.1 °F 38% 30.22 in 10.0 mi South 4.6 mph - N/A   Clear
10:35 PM 35.8 °F 31.9 °F 13.8 °F 41% 30.21 in 10.0 mi South 4.6 mph - N/A   Clear
10:55 PM 36.1 °F 31.4 °F 12.6 °F 38% 30.20 in 10.0 mi South 5.8 mph - N/A   Clear
11:15 PM 35.8 °F 29.4 °F 14.9 °F 43% 30.19 in 10.0 mi South 8.1 mph - N/A   Clear
11:35 PM 35.8 °F 30.1 °F 17.6 °F 48% 30.19 in 10.0 mi South 6.9 mph - N/A   Clear
11:55 PM 35.8 °F 31.9 °F 14.7 °F 42% 30.18 in 10.0 mi South 4.6 mph - N/A   Clear